Lexington Weather

Lexington, Massachusetts, USA

52°F
9/29/2022 4:53am 
  • Lexington Conditions: Clear
  • Temperature: 52.0°F / 11.1°CColder 0.7°F than last hour.
  • Dew Point: 47.8°FDecreased 0.6°Fsince last hour.
  • Relative Humidity: 86%Increased 1.0% since last hour.
  • Wind: Calm, 10-min avg: Calm, gust: None
  • Barometer: 30.21 in Steady
  • Visibility: 10 miles
  • Rain Today: 0.00 in
  •   

Regional Weather Roundup
for Boston, MA

        
000
ASUS41 KBOX 290810
RWRBOX

REGIONAL WEATHER ROUNDUP
NATIONAL WEATHER SERVICE BOSTON/NORTON MA
400 AM EDT THU SEP 29 2022

NOTE:  "FAIR" INDICATES FEW OR NO CLOUDS BELOW 12,000 FEET WITH NO 
SIGNIFICANT WEATHER AND/OR OBSTRUCTIONS TO VISIBILITY.

MAZALL-290900-
EASTERN MASSACHUSETTS
  
CITY           SKY/WX    TMP DP  RH WIND       PRES   REMARKS
BOSTON         CLEAR     55  46  71 NW14      30.24R                  
BEVERLY        CLEAR     51  46  83 NW7       30.23R                  
LAWRENCE       CLEAR     52  46  80 NW3       30.26R                  
BEDFORD        CLEAR     51  46  83 W3        30.24R                  
NORWOOD        CLEAR     54  48  80 NW5       30.25R                  
MARSHFIELD     CLEAR     55  50  82 NW7       30.23R                  
PLYMOUTH       CLEAR     54  49  83 N6        30.23R                  
TAUNTON          N/A    N/A N/A N/A MISG      30.24R                  
NEW BEDFORD    CLEAR     53  50  89 VRB5      30.22R                  
$$

MAZALL-290900-
CAPE COD AND THE ISLANDS
  
CITY           SKY/WX    TMP DP  RH WIND       PRES   REMARKS
FALMOUTH       CLEAR     54  50  87 CALM      30.22S                  
HYANNIS        CLEAR     60  53  77 N10       30.20R                  
CHATHAM        CLEAR     59  52  77 VRB3      30.21S                  
PROVINCETOWN   CLEAR     58  54  86 N12G18    30.22S                  
NANTUCKET      CLEAR     63  56  78 N14       30.19R                  
MARTHAS VNYRD  CLEAR     57  51  80 N9        30.21R                  
$$
 
MAZALL-290900-
CENTRAL AND WESTERN MASSACHUSETTS
  
CITY           SKY/WX    TMP DP  RH WIND       PRES   REMARKS
WORCESTER      CLEAR     51  44  77 NW10      30.25R                  
FITCHBURG      CLEAR     51  44  77 NW7       30.27R                  
ORANGE         CLEAR     46  43  89 CALM      30.28S                  
SPRINGFIELD    CLEAR     47  44  90 CALM      30.25R                  
WESTFIELD      CLEAR     52  46  80 W3        30.28R                  
NORTH ADAMS    CLOUDY    51  47  86 W5        30.30S                  
PITTSFIELD     CLEAR     46  42  86 W8        30.29R                  
$$
 
RIZALL-290900-
RHODE ISLAND
  
CITY           SKY/WX    TMP DP  RH WIND       PRES   REMARKS
PROVIDENCE     CLEAR     54  47  77 N10       30.25R                  
NEWPORT        CLEAR     55  49  80 N8        30.23R                  
BLOCK ISLAND   CLEAR     56  48  74 N12G17    30.24R                  
SMITHFIELD     CLEAR     50  47  89 N5        30.25R                  
WESTERLY       CLEAR     54  50  86 N6        30.24R                  
$$
 
CTZALL-290900-
CONNECTICUT
  
CITY           SKY/WX    TMP DP  RH WIND       PRES   REMARKS
BRADLEY INTL   PTCLDY    51  47  86 CALM      30.28R                  
HARTFORD       CLEAR     55  47  74 N8        30.28R                  
BRIDGEPORT     CLEAR     54  47  77 N10       30.27R                  
DANBURY        CLEAR     53  43  68 VRB3      30.30R                  
GROTON         CLEAR     55  49  80 N10       30.24R                  
NEW HAVEN      CLEAR     56  49  77 N7        30.27R                  
CHESTER        FAIR      52  50  93 NW8       30.26R                  
MERIDEN        CLEAR     53  46  77 N8        30.27R                  
WILLIMANTIC    CLEAR     50  48  93 NE3       30.27R                  
OXFORD         CLEAR     51  45  79 N13       30.28S                  
$$

MEZ002-015-021-024-NHZ003-005-008-011-012-014-VTZ005-008-290900-
NORTHERN NEW ENGLAND
  
CITY           SKY/WX    TMP DP  RH WIND       PRES   REMARKS
PORTLAND ME    CLEAR     49  47  93 NW8       30.22R                  
BANGOR ME      PTCLDY    52  49  89 W3        30.18S                  
CONCORD NH     CLEAR     49  45  86 N9        30.25S                  
MANCHESTER NH  CLEAR     53  45  74 NW6       30.24R                  
NASHUA NH      CLEAR     52  49  89 W6        30.26R                  
PORTSMOUTH NH  CLEAR     51  46  84 W3        30.22S                  
JAFFREY NH     CLEAR     46  43  89 CALM      30.27R                  
KEENE NH       PTCLDY    43  43 100 CALM        N/A  FOG              
BURLINGTON VT  CLOUDY    53  45  74 N10       30.33S                  
MT. WASHINGTON FOG       32  32 100 NW31        N/A  VSB 0   WCI  17  
$$

NYZ052-076-290900-
EASTERN NEW YORK
  
CITY           SKY/WX    TMP DP  RH WIND       PRES   REMARKS
ALBANY         CLOUDY    53  48  83 NW5       30.33R                  
NEW YORK CITY  PTCLDY    57  43  59 N12G18    30.29R                  
$$
 
ANZALL-290900-
MARINE OBSERVATIONS
  
STATION/POSITION TIME  TEMP    WIND        PRES    VSBY  WAVE
                       AIR SEA DIR/SP/G                  HT/PER
                 (UTC) (F)     (DEG/KT/KT) (MB)    (MI)  (FT/S)
BOSTON BUOY      0750      60  330/ 16/ 17 1023.8R         3/ 3
BUZZARDS BAY     0700   58     360/ 23/ 26 1022.8F
NANTUCKET SOUND  0800   62 67  360/ 16/ 19 1022.5
MASS BAY-STELLWA 0604   58 61  340/ 14/ 17 1022.3R  1 7/8  2/ 3
ISLE OF SHOALS   0700   55     310/ 17/ 18 1022.4R
S OF BLOCK IS    0726      65                N/A           4/ 5
$$

......................KEY.........................
  SKY/WX - SKY CONDITION/PRESENT WEATHER
  TMP    - TEMPERATURE IN FAHRENHEIT
  DWPT   - DEWPOINT IN FAHRENHEIT
  RH     - RELATIVE HUMIDITY IN PERCENT
  WIND   - DIRECTION AND SPEED IN MPH
  PRES   - MEAN SEA LEVEL PRESSURE IN INCHES OF HG
  WCI    - WIND CHILL INDEX
  VSB    - VISIBILITY IN MILES
  HX     - HEAT INDEX
  TC     - TEMPERATURE IN CELSIUS
  VRB    - VARIABLE WIND DIRECTION
  N/A    - NOT AVAILABLE
  
      

Other recent Regional Weather Roundups

Thu Sep 29, 3:10am

Thu Sep 29, 2:10am

Thu Sep 29, 1:10am

Thu Sep 29, 12:10am

Wed Sep 28, 11:10pm

Wed Sep 28, 10:10pm

Wed Sep 28, 9:10pm

Wed Sep 28, 8:10pm

Wed Sep 28, 7:10pm

Wed Sep 28, 6:10pm

Wed Sep 28, 5:10pm

Wed Sep 28, 4:10pm

Wed Sep 28, 3:10pm

Wed Sep 28, 2:10pm

Wed Sep 28, 1:10pm

Wed Sep 28, 12:10pm

Wed Sep 28, 11:10am

Wed Sep 28, 10:10am

Wed Sep 28, 9:10am

Wed Sep 28, 8:10am

Wed Sep 28, 7:10am

Wed Sep 28, 6:10am

Wed Sep 28, 5:10am

Wed Sep 28, 4:10am

Wed Sep 28, 3:10am

Wed Sep 28, 2:10am

Wed Sep 28, 1:10am

Wed Sep 28, 12:10am

Tue Sep 27, 11:10pm

Tue Sep 27, 10:10pm

Tue Sep 27, 9:10pm

Tue Sep 27, 8:10pm

Tue Sep 27, 7:10pm

Tue Sep 27, 6:10pm

Tue Sep 27, 5:10pm

Tue Sep 27, 4:10pm

Tue Sep 27, 3:10pm

Tue Sep 27, 2:10pm

Tue Sep 27, 1:10pm

Tue Sep 27, 12:10pm

Tue Sep 27, 11:10am

Tue Sep 27, 10:10am

Tue Sep 27, 9:10am

Tue Sep 27, 8:10am

Tue Sep 27, 7:10am

Tue Sep 27, 6:10am

Tue Sep 27, 5:10am

Tue Sep 27, 4:10am

Tue Sep 27, 3:10am

Tue Sep 27, 2:10am

Tue Sep 27, 1:10am

Tue Sep 27, 12:10am

Mon Sep 26, 11:10pm

Mon Sep 26, 10:10pm

Mon Sep 26, 9:10pm

Mon Sep 26, 8:10pm

Mon Sep 26, 7:10pm

Mon Sep 26, 6:10pm

Mon Sep 26, 5:10pm

Mon Sep 26, 4:10pm

Mon Sep 26, 3:10pm

Mon Sep 26, 2:10pm

Mon Sep 26, 1:10pm

Mon Sep 26, 12:10pm

Mon Sep 26, 11:10am

Mon Sep 26, 10:10am

Mon Sep 26, 9:10am

Mon Sep 26, 8:10am

Mon Sep 26, 7:10am

Mon Sep 26, 6:10am

Mon Sep 26, 5:10am

Mon Sep 26, 4:10am

Mon Sep 26, 3:10am

Mon Sep 26, 2:10am

Mon Sep 26, 1:10am

Mon Sep 26, 12:10am

Sun Sep 25, 11:10pm

Sun Sep 25, 10:10pm

Sun Sep 25, 9:10pm

Sun Sep 25, 8:10pm

Sun Sep 25, 7:10pm

Sun Sep 25, 6:10pm

Sun Sep 25, 5:10pm

Sun Sep 25, 4:10pm

Sun Sep 25, 3:10pm

Sun Sep 25, 2:10pm

Sun Sep 25, 1:10pm

Sun Sep 25, 12:10pm

Sun Sep 25, 11:10am

Sun Sep 25, 10:10am

Sun Sep 25, 9:10am

Sun Sep 25, 8:10am

Sun Sep 25, 7:10am

Sun Sep 25, 6:10am

Sun Sep 25, 5:10am

Sun Sep 25, 4:10am

Sun Sep 25, 3:10am

Sun Sep 25, 2:10am

Sun Sep 25, 1:10am

Sun Sep 25, 12:10am

Sat Sep 24, 11:10pm

Sat Sep 24, 10:10pm

Sat Sep 24, 9:10pm

Sat Sep 24, 8:10pm

Sat Sep 24, 7:10pm

Sat Sep 24, 6:10pm

Sat Sep 24, 5:10pm

Sat Sep 24, 4:10pm

Sat Sep 24, 3:10pm

Sat Sep 24, 2:10pm

Sat Sep 24, 1:10pm

Sat Sep 24, 12:10pm

Sat Sep 24, 11:10am

Sat Sep 24, 10:10am

Sat Sep 24, 9:10am

Sat Sep 24, 8:10am

Sat Sep 24, 7:10am

Sat Sep 24, 6:10am

Sat Sep 24, 5:10am

Sat Sep 24, 4:10am

Sat Sep 24, 3:10am

Sat Sep 24, 2:10am

Sat Sep 24, 1:10am

Sat Sep 24, 12:10am

Fri Sep 23, 11:10pm

Fri Sep 23, 10:10pm

Fri Sep 23, 9:10pm

Fri Sep 23, 8:10pm

Fri Sep 23, 7:10pm

Fri Sep 23, 6:10pm

Fri Sep 23, 5:10pm

Fri Sep 23, 4:10pm

Fri Sep 23, 3:10pm

Fri Sep 23, 2:10pm

Fri Sep 23, 1:10pm

Fri Sep 23, 12:10pm

Fri Sep 23, 11:10am

Fri Sep 23, 10:10am

Fri Sep 23, 9:10am

Fri Sep 23, 8:10am

Fri Sep 23, 7:10am

Fri Sep 23, 6:10am

Fri Sep 23, 5:10am

Fri Sep 23, 4:10am

Fri Sep 23, 3:10am

Fri Sep 23, 2:10am

Fri Sep 23, 1:10am

Fri Sep 23, 12:10am

Thu Sep 22, 11:10pm

Thu Sep 22, 10:10pm

Thu Sep 22, 9:10pm

Thu Sep 22, 8:10pm

Thu Sep 22, 7:10pm

Thu Sep 22, 6:10pm

Thu Sep 22, 5:10pm

Thu Sep 22, 4:10pm

Thu Sep 22, 3:10pm

Thu Sep 22, 2:10pm

Thu Sep 22, 1:10pm

Thu Sep 22, 12:10pm

Thu Sep 22, 11:10am

Thu Sep 22, 10:10am

Thu Sep 22, 9:10am

Thu Sep 22, 8:10am

Thu Sep 22, 7:10am

Thu Sep 22, 6:10am

Thu Sep 22, 5:10am

Meta data:

ID: 4a83f5d6-fe03-495c-b056-10db06a5a560
Link: https://api.weather.gov/products/4a83f5d6-fe03-495c-b056-10db06a5a560